Mountain Home AFB, ID

9:37 AM MST on January 18, 2017 (GMT -0700)
Mountain Home Air Force Base

Weather History for KMUO - August, 2014

Change the Weather History Date:

Friday, August 8, 2014

  Actual Average Record
Temperature  
Mean Temperature 75 °F 77 °F  
Max Temperature 91 °F 94 °F 108 °F (1990)
Min Temperature 59 °F 58 °F 38 °F (1946)
Degree Days  
Heating Degree Days 0 0  
Month to date heating degree days 0 0  
Cooling Degree Days 10 12  
Month to date cooling degree days 99 99  
Growing Degree Days 25 (Base 50)    
Moisture  
Dew Point 57 °F    
Average Humidity 59    
Maximum Humidity 100    
Minimum Humidity 23    
Precipitation  
Precipitation T in 0.01 in 0.08 in (1964)
Month to date precipitation 0.03 0.04  
Sea Level Pressure  
Sea Level Pressure 29.91 in    
Wind  
Wind Speed 10 mph (ESE)    
Max Wind Speed 18 mph    
Max Gust Speed 23 mph    
Visibility 9 miles    
Events Rain    
T = Trace of Precipitation, MM = Missing Value Source: NWS Daily Summary

Daily Weather History Graph

Daily Weather History Graph

Search for Another Location

Airport or City:

Trip Planner

Search our weather history database for the weather conditions in past years. The results will help you decide how hot, cold, wet, or windy it might be!

Date:

Astronomy

Aug. 08, 2014 Rise Set
Actual Time 6:41 AM MDT 8:55 PM MDT
Civil Twilight 6:10 AM MDT 9:27 PM MDT
Nautical Twilight 5:31 AM MDT 10:05 PM MDT
Astronomical Twilight 4:48 AM MDT 10:48 PM MDT
Moon 7:11 PM MDT (8/8) 4:18 AM MDT (8/8)
Length of Visible Light 15h 16m
Length of Day
14h 13m
Waxing Gibbous, 94% of the Moon is Illuminated
Aug 8
Waxing Gibbous
Aug 10
Full
Aug 17
Last Quarter
Aug 25
New
Sep 2
First Quarter

Hourly Weather History & Observations

Time (MDT) Temp. Heat Index Dew Point Humidity Pressure Visibility Wind Dir Wind Speed Gust Speed Precip Events Conditions
12:58 AM 65.7 °F - 57.7 °F 76% 29.91 in 10.0 mi East 10.4 mph - N/A   Clear
1:58 AM 64.0 °F - 58.8 °F 83% 29.91 in 10.0 mi ESE 10.4 mph - N/A   Clear
2:58 AM 64.6 °F - 58.6 °F 81% 29.89 in 10.0 mi ESE 12.7 mph - N/A   Clear
3:58 AM 62.2 °F - 61.0 °F 96% 29.89 in 10.0 mi East 11.5 mph - N/A   Clear
4:58 AM 61.5 °F - 61.2 °F 99% 29.90 in 10.0 mi ESE 8.1 mph - N/A   Clear
5:58 AM 60.1 °F - 59.7 °F 99% 29.91 in 10.0 mi ESE 10.4 mph - N/A   Clear
6:58 AM 61.5 °F - 61.5 °F 100% 29.92 in 10.0 mi SE 3.5 mph - N/A   Clear
7:58 AM 63.7 °F - 63.5 °F 99% 29.92 in 10.0 mi ESE 10.4 mph - N/A   Clear
8:58 AM 68.5 °F - 61.2 °F 77% 29.93 in 10.0 mi ESE 11.5 mph - N/A   Clear
9:58 AM 73.9 °F - 58.3 °F 58% 29.93 in 10.0 mi East 13.8 mph - N/A   Clear
10:45 AM 77.0 °F - 57.2 °F 50% 30.00 in 7.0 mi ESE 17.3 mph - N/A   Haze
10:58 AM 76.1 °F - 57.9 °F 53% 29.95 in 7.0 mi ESE 17.3 mph - N/A   Haze
11:13 AM 75.2 °F - 57.2 °F 53% 30.01 in 7.0 mi SE 16.1 mph - N/A Rain Light Rain Showers
11:25 AM 75.2 °F - 57.2 °F 53% 29.99 in 7.0 mi East 13.8 mph - N/A Rain Light Rain Showers
11:45 AM 75.2 °F - 59.0 °F 57% 29.98 in 7.0 mi East 12.7 mph 20.7 mph N/A   Haze
11:58 AM 75.4 °F - 57.4 °F 53% 29.91 in 7.0 mi East 18.4 mph 23.0 mph 0.00 in   Haze
12:58 PM 77.2 °F - 56.1 °F 48% 29.94 in 10.0 mi Calm Calm - N/A   Mostly Cloudy
1:58 PM 81.3 °F 81.0 °F 55.8 °F 41% 29.91 in 10.0 mi NE 10.4 mph - N/A   Scattered Clouds
2:58 PM 84.4 °F 82.8 °F 53.4 °F 34% 29.90 in 10.0 mi Variable 2.3 mph - N/A   Scattered Clouds
3:58 PM 87.6 °F 85.5 °F 53.1 °F 31% 29.86 in 10.0 mi Variable 4.6 mph - N/A   Partly Cloudy
4:58 PM 90.5 °F - 50.4 °F 25% 29.85 in 10.0 mi North 3.5 mph - N/A   Partly Cloudy
5:58 PM 90.3 °F - 47.5 °F 23% 29.84 in 10.0 mi Variable 3.5 mph - N/A   Clear
6:58 PM 88.0 °F - 48.4 °F 25% 29.83 in 10.0 mi SE 6.9 mph - N/A   Scattered Clouds
7:58 PM 78.3 °F - 59.5 °F 52% 29.86 in 10.0 mi NW 16.1 mph - 0.00 in Rain Light Rain
8:58 PM 80.4 °F 80.2 °F 54.3 °F 40% 29.84 in 10.0 mi North 6.9 mph - 0.00 in   Clear
9:58 PM 74.3 °F - 53.4 °F 48% 29.88 in 10.0 mi SE 5.8 mph - N/A   Clear
10:58 PM 69.6 °F - 52.9 °F 55% 29.89 in 10.0 mi SE 4.6 mph - N/A   Clear
11:58 PM 71.6 °F - 53.4 °F 53% 29.91 in 10.0 mi East 6.9 mph - N/A   Scattered Clouds